CLASSIFICATION route 6 km TT.unic NATIONALITY Filipino
    idracetypedateroutekmelevation (m)Pos.Bid nr.flagFamily NameNamescoregenderteamNAT.CATEGORYPOS.CAT.TimeGap abs.
    time
    Average
    km/hr
    RW6 km TTTT14/12/2018 08:45:00unic650116Dela RosaMichaelMRWFilipinoOpen Male6/2300:09:0200:00:5639,80
    RW6 km TTTT14/12/2018 08:45:00unic650167SolimanPercival JrMRWFilipinoVeteran Male5/2300:09:2000:01:1338,50
    RW6 km TTTT14/12/2018 08:45:00unic6501717PinanoAlfieMRWFilipinoOpen Male9/2300:09:2100:01:1538,40
    RW6 km TTTT14/12/2018 08:45:00unic6502569DetomalBernardMRWFilipinoVeteran Male9/2300:09:4300:01:3737,00
    RW6 km TTTT14/12/2018 08:45:00unic6502623CalagoErwinMRWFilipinoVeteran Male10/2300:09:4500:01:3936,90
    RW6 km TTTT14/12/2018 08:45:00unic65030113GicanaRamilMRWFilipinoVeteran Male12/2300:09:5100:01:4436,50
    RW6 km TTTT14/12/2018 08:45:00unic6503334SumonodJorgeMRWFilipinoOpen Male18/2300:09:5800:01:5236,10
    RW6 km TTTT14/12/2018 08:45:00unic6503639AltavasJose CortesMRWFilipinoVeteran Male14/2300:10:0200:01:5635,80
    RW6 km TTTT14/12/2018 08:45:00unic65037123MarinasHerbert PaulMRWFilipinoOpen Male19/2300:10:0600:02:0035,60
    RW6 km TTTT14/12/2018 08:45:00unic6503831SungaJaimeMRWFilipinoMaster Male3/1200:10:0700:02:0135,50
    RW6 km TTTT14/12/2018 08:45:00unic6504038TubangJulietoMRWFilipinoMaster Male4/1200:10:1300:02:0735,20
    RW6 km TTTT14/12/2018 08:45:00unic6504246CaceresMarvinMRWFilipinoVeteran Male15/2300:10:2400:02:1834,50
    RW6 km TTTT14/12/2018 08:45:00unic6504419SantosMarvinMRWFilipinoOpen Male21/2300:10:3000:02:2334,20
    6 km TTTT14/12/2018 08:45:00unic65047204SantosRurik IanMFilipinoVeteran Male17/2300:10:3400:02:2834,00
    RW6 km TTTT14/12/2018 08:45:00unic6504832OcaEdilbertoMRWFilipinoMaster Male6/1200:10:3600:02:3033,90
    RW6 km TTTT14/12/2018 08:45:00unic65049128GicanaJunMRWFilipinoVeteran Male18/2300:10:3800:02:3233,80
    RW6 km TTTT14/12/2018 08:45:00unic6505041TolentinoWilliamMRWFilipinoMaster Male7/1200:10:3900:02:3333,70
    RW6 km TTTT14/12/2018 08:45:00unic65053117CordialJunMRWFilipinoVeteran Male20/2300:10:4800:02:4233,20
    RW6 km TTTT14/12/2018 08:45:00unic6505582ManicdaoArielMRWFilipinoVeteran Male21/2300:11:0400:02:5832,50
    RW6 km TTTT14/12/2018 08:45:00unic6505633MarinasFlorie MRWFilipinoOpen Female2/400:11:0500:02:5932,40
    RW6 km TTTT14/12/2018 08:45:00unic6505771MendozaRichardMRWFilipinoVeteran Male22/2300:11:0600:03:0032,40
    RW6 km TTTT14/12/2018 08:45:00unic6506081JavierJessieMRWFilipinoMaster Male9/1200:11:1900:03:1331,70
    RW6 km TTTT14/12/2018 08:45:00unic6506128EllaBenedictMRWFilipinoMaster Male10/1200:11:2500:03:1931,50
    n 23 athletes 138,001.150,00
Dela Rosa MichaelSoliman Percival JrDetomal BernardCalago ErwinGicana RamilSumonod JorgeAltavas Jose CortesMarinas Herbert PaulSunga JaimeCaceres Marvin
Santos Rurik IanOca EdilbertoTolentino WilliamCordial JunMendoza RichardJavier JessieElla Benedict

6 km TT.unic nr. athletes for TEAM (first 200)

PHOTOS
No photos for this race

VIDEOS

FIND ATHLETES races saved
find results also athletes others team
Fam.Name: Name:
rem: to insert Family name (It is simply a part of word)

FIND TEAM Races saved
You can find the result of others team
TEAM: RACE: ROUTE:
rem: to insert one team (It is simply a part of word)

home